Ypsilanti, MI

1:35 PM EDT on June 27, 2017 (GMT -0400)
Willow Run

Weather History for KYIP - February, 2013

Change the Weather History Date:

Monday, February 11, 2013

  Actual Average Record
Temperature  
Mean Temperature 42 °F -  
Max Temperature 48 °F 34 °F 68 °F (1999)
Min Temperature 34 °F 17 °F -6 °F (1982)
Degree Days  
Heating Degree Days 24    
Moisture  
Dew Point 30 °F    
Average Humidity 66    
Maximum Humidity 83    
Minimum Humidity 55    
Precipitation  
Precipitation 0.00 in - - ()
Sea Level Pressure  
Sea Level Pressure 29.68 in    
Wind  
Wind Speed 20 mph (SW)    
Max Wind Speed 31 mph    
Max Gust Speed 45 mph    
Visibility 10 miles    
Events      
Averages and records for this station are not official NWS values.
T = Trace of Precipitation, MM = Missing Value Source: NWS Daily Summary

Daily Weather History Graph

Daily Weather History Graph

Search for Another Location

Airport or City:

Trip Planner

Search our weather history database for the weather conditions in past years. The results will help you decide how hot, cold, wet, or windy it might be!

Date:

Astronomy

Feb. 11, 2013 Rise Set
Actual Time 7:35 AM EST 6:01 PM EST
Civil Twilight 7:06 AM EST 6:30 PM EST
Nautical Twilight 6:33 AM EST 7:03 PM EST
Astronomical Twilight 6:00 AM EST 7:36 PM EST
Moon 7:56 AM EST (2/11) 8:00 PM EST (2/11)
Length of Visible Light 11h 24m
Length of Day
10h 26m
Waxing Crescent, 3% of the Moon is Illuminated
Feb 11
Waxing Crescent
Feb 17
First Quarter
Feb 25
Full
Mar 4
Last Quarter
Mar 11
New

Hourly Weather History & Observations

Time (EST) Temp. Windchill Dew Point Humidity Pressure Visibility Wind Dir Wind Speed Gust Speed Precip Events Conditions
12:53 AM 44.1 °F 38.1 °F 37.9 °F 79% 29.69 in 10.0 mi SSW 11.5 mph 16.1 mph N/A   Overcast
1:53 AM 46.0 °F 39.9 °F 39.9 °F 79% 29.66 in 10.0 mi SSW 13.8 mph - N/A   Overcast
2:53 AM 46.9 °F - 42.1 °F 83% 29.63 in 10.0 mi South 16.1 mph 25.3 mph N/A   Overcast
3:53 AM 48.0 °F - 42.1 °F 80% 29.61 in 10.0 mi SSW 16.1 mph - N/A   Overcast
4:53 AM 48.0 °F - 42.1 °F 80% 29.58 in 10.0 mi South 15.0 mph - N/A   Overcast
5:48 AM 48.2 °F - 42.8 °F 82% 29.56 in 10.0 mi SSW 20.7 mph 31.1 mph N/A   Mostly Cloudy
5:53 AM 48.0 °F - 41.0 °F 77% 29.57 in 10.0 mi SSW 24.2 mph 34.5 mph N/A   Mostly Cloudy
6:07 AM 48.2 °F - 41.0 °F 76% 29.57 in 10.0 mi SSW 25.3 mph 31.1 mph N/A   Overcast
7:53 AM 44.1 °F 35.9 °F 33.1 °F 65% 29.60 in 10.0 mi WSW 19.6 mph 26.5 mph 0.00 in   Overcast
8:53 AM 42.1 °F 32.8 °F 30.0 °F 62% 29.61 in 10.0 mi SW 21.9 mph 34.5 mph N/A   Overcast
9:36 AM 42.8 °F 33.1 °F 30.2 °F 61% 29.61 in 10.0 mi WSW 25.3 mph 33.4 mph N/A   Overcast
9:53 AM 41.0 °F 32.2 °F 28.9 °F 62% 29.62 in 10.0 mi WSW 18.4 mph 33.4 mph N/A   Overcast
10:23 AM 39.2 °F 28.0 °F 28.4 °F 65% 29.62 in 10.0 mi SW 26.5 mph 42.6 mph N/A   Overcast
10:39 AM 39.2 °F 28.7 °F 28.4 °F 65% 29.63 in 10.0 mi WSW 23.0 mph 34.5 mph N/A   Overcast
10:53 AM 37.9 °F 26.1 °F 27.0 °F 65% 29.65 in 10.0 mi WSW 27.6 mph 38.0 mph N/A   Overcast
11:20 AM 37.4 °F 25.9 °F 26.6 °F 65% 29.65 in 10.0 mi WSW 25.3 mph 38.0 mph N/A   Overcast
11:53 AM 37.9 °F 26.3 °F 24.1 °F 57% 29.65 in 10.0 mi WSW 26.5 mph 41.4 mph N/A   Overcast
12:53 PM 37.9 °F 25.9 °F 23.0 °F 55% 29.65 in 10.0 mi WSW 28.8 mph 44.9 mph N/A   Overcast
1:53 PM 37.9 °F 26.3 °F 24.1 °F 57% 29.66 in 10.0 mi WSW 26.5 mph 36.8 mph N/A   Overcast
2:53 PM 37.9 °F 27.1 °F 25.0 °F 60% 29.68 in 10.0 mi WSW 23.0 mph 39.1 mph N/A   Overcast
3:53 PM 37.0 °F 24.3 °F 24.1 °F 59% 29.70 in 10.0 mi WSW 31.1 mph 42.6 mph N/A   Overcast
4:35 PM 37.4 °F 25.4 °F 24.8 °F 60% 29.72 in 10.0 mi WSW 27.6 mph 40.3 mph N/A   Overcast
4:53 PM 37.0 °F 25.6 °F 24.1 °F 59% 29.74 in 10.0 mi WSW 24.2 mph 33.4 mph N/A   Overcast
5:53 PM 37.0 °F 26.4 °F 25.0 °F 62% 29.75 in 10.0 mi WSW 20.7 mph 33.4 mph N/A   Overcast
6:53 PM 37.0 °F 25.6 °F 25.0 °F 62% 29.79 in 10.0 mi West 24.2 mph 32.2 mph N/A   Overcast
7:53 PM 36.0 °F 23.9 °F 24.1 °F 62% 29.81 in 10.0 mi West 25.3 mph 32.2 mph N/A   Overcast
8:53 PM 36.0 °F 24.7 °F 24.1 °F 62% 29.83 in 10.0 mi West 21.9 mph 34.5 mph N/A   Overcast
9:53 PM 35.1 °F 25.2 °F 23.0 °F 61% 29.85 in 10.0 mi West 16.1 mph 33.4 mph N/A   Overcast
10:53 PM 35.1 °F 22.7 °F 23.0 °F 61% 29.86 in 10.0 mi West 25.3 mph 34.5 mph N/A   Overcast
11:53 PM 34.0 °F 22.1 °F 24.1 °F 67% 29.88 in 10.0 mi West 21.9 mph 28.8 mph N/A   Overcast